Weather in Divnynske

Ukraine / Zaporizhia Region     46°39′16″N   35°33′48″E
temp.,
°C
wind,
m/s
gust,
m/s
humid.,
%
clouds,
%
prec.,
mm/h
press.,
hPa
HPBL,
m
5 march, fri
fri523:00+4sw7148222 0.0 1015557
02:00+4sw6138518 0.0 1015538
05:00+4sw6139045 0.0 1014449
08:00+6sw5108572 0.0 1013507
11:00+9sw577195 0.0 1014803
14:00+10s566698 0.0 1012635
17:00+9s4770100 0.0 1012270
20:00+7sw3577100 0.0 101383
6 march, sat
sat623:00+6sw4987100 0.0 1012231
02:00+5sw4109098 0.0 1011297
05:00+5wsw41189100 0.0 1011300
08:00+5nw71081100 0.0 1014754
11:00+4nnw81166100 0.0 1017968
14:00+4nnw8114699 0.0 10191435
17:00+2nnw7104099 0.0 10221407
20:000nnw5105656 0.0 1025504
7 march, sun
sun723:00−1nw37630 0.0 1027303
02:00−2w38590 0.0 1027291
05:00−2w38600 0.0 1027232
08:000w58450 0.0 1027588
11:00+4w710390 0.0 10261759
14:00+5w7103816 0.0 10231704
17:00+3wsw69380 0.0 1022861
20:00+1wsw5115117 0.0 1021383
8 march, mon
mon823:000sw614691 0.0 1020508
02:00+1wsw615740 0.0 1019580
05:00+1wsw6158035 0.0 1018482
08:00+4wsw8137359 0.0 1018840
11:00+8wsw8115045 0.0 10171589
14:00+9wsw8114635 0.0 10161924
17:00+7wsw61052100 0.1 1015826
20:00+4wsw61264100 0.1 1016415
9 march, tue
tue923:00+3wsw4975100 0.0 1016287
02:00+1wsw358455 0.0 1015105
05:000wsw348710 0.0 101579
08:00+3w477022 0.0 1015362
11:00+6nw566094 0.0 10161121
14:00+5nw465396 0.0 10171311
17:00+4n454589 0.0 10171378
20:00+1nnw335454 0.0 101969